This is the latest recevied weather packets stored in our database for station/object W2BP-13. If no packets are shown the sender has not sent any weather packets the latest 10 day(s).
| Time | Temp. | Humidity | Pressure | Rain* | Wind** | Luminosity | Snow |
|---|---|---|---|---|---|---|---|
| 1778204433 | 26.11° C | 25% | 1016.4 hPa | 0 mm | - | - | - |
| 1778203532 | 27.22° C | 25% | 1016.2 hPa | 0 mm | - | - | - |
| 1778202633 | 27.78° C | 22% | 1016.4 hPa | 0 mm | - | - | - |
| 1778201733 | 27.22° C | 22% | 1016.6 hPa | 0 mm | - | - | - |
| 1778200833 | 27.22° C | 23% | 1016.5 hPa | 0 mm | - | - | - |
| 1778199932 | 27.22° C | 22% | 1016.8 hPa | 0 mm | - | - | - |
| 1778199033 | 26.67° C | 21% | 1016.6 hPa | 0 mm | - | - | - |
| 1778198133 | 27.22° C | 23% | 1016.8 hPa | 0 mm | - | - | - |
| 1778197232 | 27.22° C | 22% | 1017 hPa | 0 mm | - | - | - |
| 1778196332 | 27.22° C | 21% | 1017.1 hPa | 0 mm | - | - | - |
| 1778195433 | 27.22° C | 24% | 1017.2 hPa | 0 mm | - | - | - |
| 1778194532 | 27.78° C | 22% | 1017.5 hPa | 0 mm | - | - | - |
| 1778193633 | 27.78° C | 20% | 1017.5 hPa | 0 mm | - | - | - |
| 1778192732 | 27.78° C | 22% | 1017.8 hPa | 0 mm | - | - | - |
| 1778191833 | 28.33° C | 21% | 1017.9 hPa | 0 mm | - | - | - |
| 1778190933 | 27.22° C | 25% | 1018 hPa | 0 mm | - | - | - |
| 1778190032 | 26.67° C | 23% | 1018.4 hPa | 0 mm | - | - | - |
| 1778189133 | 26.11° C | 27% | 1018.5 hPa | 0 mm | - | - | - |
| 1778188233 | 26.67° C | 27% | 1018.5 hPa | 0 mm | - | - | - |
| 1778187332 | 26.11° C | 27% | 1018.8 hPa | 0 mm | - | - | - |
| 1778186495 | 26.11° C | 26% | 1018.9 hPa | 0 mm | - | - | - |
| 1778185533 | 25.56° C | 28% | 1019.3 hPa | 0 mm | - | - | - |
| 1778184632 | 24.44° C | 31% | 1019.1 hPa | 0 mm | - | - | - |
| 1778183733 | 24.44° C | 32% | 1019.4 hPa | 0 mm | - | - | - |
| 1778182833 | 23.89° C | 32% | 1019.5 hPa | 0 mm | - | - | - |
* Rain latest hour (hover to see other rain measurements)
** Current wind speed in m/s (hover to see current wind gust speed)